Tracking 18673 objects as of 28-June-2017
HD Live streaming from Space Station
objects crossing your sky now

INTELSAT 501

Track INTELSAT 501 now!
INTELSAT 501 is classified as:


NORAD ID: 12474
Int'l Code: 1981-050A
Perigee: 36,176.0 km
Apogee: 36,217.4 km
Inclination: 15.1 °
Period: 1,456.7 minutes
Semi major axis: 42567 km
RCS: 3.981 m2 (large)
Launch date: May 23, 1981
Source: International Telecommunications Satellite Organization (ITSO)
Launch site: AIR FORCE EASTERN TEST RANGE (AFETR)
Your satellite tracking list
Your tracking list is empty





NASA's NSSDC Master Catalog

Two Line Element Set (TLE):
1 12474U 81050A   17177.53252177 -.00000028 +00000-0 +00000-0 0  9998
2 12474 015.0625 352.2765 0004861 196.2675 179.1735 00.98851425105342
Source of the keplerian elements: AFSPC